Weather History for Ashland, WI

Change the Weather History Date:

Wednesday, December 5, 2012

  Actual Average Record
Temperature  
Mean Temperature 26 °F -  
Max Temperature 36 °F 30 °F 55 °F (2001)
Min Temperature 15 °F 13 °F -17 °F (1964)
Degree Days  
Heating Degree Days 40    
Moisture  
Dew Point 15 °F    
Average Humidity 64    
Maximum Humidity 88    
Minimum Humidity 46    
Precipitation  
Precipitation 0.00 in - - ()
Sea Level Pressure  
Sea Level Pressure 30.29 in    
Wind  
Wind Speed 5 mph (SSW)    
Max Wind Speed 12 mph    
Max Gust Speed 21 mph    
Visibility 10 miles    
Events      
Averages and records for this station are not official NWS values.
T = Trace of Precipitation, MM = Missing Value Source: NWS Daily Summary

Daily Weather History Graph

Daily Weather History Graph

Search for Another Location

Airport:

Trip Planner

Search our weather history database for the weather conditions in past years. The results will help you decide how hot, cold, wet, or windy it might be!

Date:

Astronomy

Dec. 05, 2012 Rise Set
Actual Time 7:32 AM CST 4:16 PM CST
Civil Twilight 6:57 AM CST 4:51 PM CST
Nautical Twilight 6:19 AM CST 5:29 PM CST
Astronomical Twilight 5:42 AM CST 6:05 PM CST
Moon 11:25 PM CST (12/5) 11:39 AM CST (12/5)
Length of Visible Light 9h 53m
Length of Day
8h 44m
Waning Gibbous, 59% of the Moon is Illuminated
Dec 5
Waning Gibbous
Dec 6
Last Quarter
Dec 13
New
Dec 19
First Quarter
Dec 28
Full

Hourly Weather History & Observations

Time (CST) Temp. Windchill Dew Point Humidity Pressure Visibility Wind Dir Wind Speed Gust Speed Precip Events Conditions
12:34 AM 19.4 °F 11.5 °F 12.2 °F 74% 30.39 in 10.0 mi West 5.8 mph - N/A   Overcast
12:53 AM 19.9 °F 13.4 °F 12.9 °F 74% 30.44 in 10.0 mi West 4.6 mph - N/A   Overcast
1:53 AM 21.0 °F 12.4 °F 14.0 °F 74% 30.44 in 10.0 mi West 6.9 mph - N/A   Overcast
2:53 AM 21.0 °F 13.4 °F 14.0 °F 74% 30.44 in 10.0 mi West 5.8 mph - N/A   Overcast
3:26 AM 21.2 °F 16.4 °F 14.0 °F 74% 30.39 in 10.0 mi WSW 3.5 mph - N/A   Overcast
3:53 AM 19.9 °F 14.9 °F 14.0 °F 78% 30.44 in 10.0 mi WSW 3.5 mph - N/A   Overcast
4:53 AM 19.9 °F 11.1 °F 14.0 °F 78% 30.47 in 10.0 mi WSW 6.9 mph - N/A   Overcast
5:53 AM 19.0 °F - 14.0 °F 81% 30.47 in 10.0 mi Calm Calm - N/A   Overcast
6:34 AM 15.8 °F 10.2 °F 12.2 °F 86% 30.41 in 10.0 mi SSW 3.5 mph - N/A   Scattered Clouds
6:53 AM 15.1 °F - 12.0 °F 88% 30.46 in 10.0 mi Calm Calm - N/A   Clear
8:53 AM 17.1 °F 8.7 °F 12.9 °F 84% 30.47 in 10.0 mi WSW 5.8 mph - N/A   Clear
9:53 AM 23.0 °F - 15.1 °F 72% 30.45 in 10.0 mi Calm Calm - N/A   Clear
10:53 AM 27.0 °F 20.5 °F 16.0 °F 63% 30.43 in 10.0 mi South 5.8 mph - N/A   Clear
11:53 AM 28.9 °F 21.1 °F 16.0 °F 58% 30.37 in 10.0 mi SSW 8.1 mph - N/A   Clear
12:53 PM 30.0 °F 22.4 °F 16.0 °F 56% 30.32 in 10.0 mi South 8.1 mph - N/A   Clear
1:53 PM 30.9 °F 26.2 °F 16.0 °F 54% 30.29 in 10.0 mi South 4.6 mph - N/A   Clear
2:53 PM 30.9 °F 24.3 °F 15.1 °F 52% 30.25 in 10.0 mi SSE 6.9 mph - N/A   Clear
3:53 PM 30.9 °F 26.2 °F 15.1 °F 52% 30.21 in 10.0 mi SSE 4.6 mph - N/A   Clear
4:53 PM 30.9 °F 27.5 °F 16.0 °F 54% 30.17 in 10.0 mi SE 3.5 mph - N/A   Overcast
5:53 PM 30.9 °F 26.2 °F 16.0 °F 54% 30.14 in 10.0 mi South 4.6 mph - N/A   Overcast
6:53 PM 32.0 °F 26.4 °F 15.1 °F 50% 30.08 in 10.0 mi Variable 5.8 mph - N/A   Overcast
7:53 PM 33.1 °F 26.9 °F 15.1 °F 48% 30.04 in 10.0 mi South 6.9 mph - N/A   Overcast
8:53 PM 34.0 °F 28.8 °F 16.0 °F 48% 30.01 in 10.0 mi South 5.8 mph - N/A   Overcast
9:53 PM 35.1 °F 27.9 °F 16.0 °F 46% 29.98 in 10.0 mi South 9.2 mph 18.4 mph N/A   Overcast
10:53 PM 36.0 °F 28.0 °F 18.0 °F 48% 29.96 in 10.0 mi SSW 11.5 mph 20.7 mph N/A   Overcast
11:53 PM 36.0 °F 28.0 °F 18.0 °F 48% 29.92 in 10.0 mi South 11.5 mph 20.7 mph N/A   Overcast